EW2337 Weather Reports


time (UTC)temp
C
wind
direction
speed
KPH
gust
KPH
rain 1hr
cm
rain 24hr
cm
rain mn
cm
humidity
%
barometer
mb
20260510192524 17 0 0.0 0.0 0.36 0.36 0.36 93 1015.1
20260510192445 17 250 0.0 0.0 0.66 0.53 0.53 93 1013.9
20260510192003 17 0 0.0 0.0 0.30 0.30 0.30 92 1014.8
20260510191942 17 251 0.0 0.0 0.61 0.46 0.46 92 1014.1
20260510191504 17 241 0.0 1.6 0.25 0.25 0.25 92 1014.9
20260510191438 17 251 0.0 0.0 0.43 0.43 0.43 91 1014.1
20260510191003 17 244 0.0 9.7 0.20 0.20 0.20 90 1015.0
20260510190936 17 250 0.0 0.0 0.43 0.38 0.38 90 1013.9
20260510190503 17 249 1.6 9.7 0.18 0.18 0.18 90 1015.2
20260510190433 17 243 0.0 9.7 0.48 0.36 0.36 90 1013.9
20260510190024 17 251 0.0 9.7 0.13 0.13 0.13 90 1015.0
20260510185929 17 253 1.6 1.6 0.30 0.30 0.30 90 1014.2
20260510185503 17 0 0.0 0.0 0.10 0.10 0.10 89 1015.0
20260510185427 17 254 0.0 0.0 0.30 0.28 0.28 89 1014.1
20260510185003 17 0 0.0 0.0 0.08 0.08 0.08 89 1014.8
20260510184924 17 269 0.0 0.0 0.30 0.25 0.25 89 1014.1
20260510184524 18 246 0.0 3.2 0.05 0.05 0.05 87 1015.0
20260510184421 18 245 0.0 0.0 0.30 0.23 0.23 86 1014.2
20260510184003 20 244 0.0 3.2 0.03 0.03 0.03 82 1015.0
20260510183920 20 245 0.0 0.0 0.00 0.18 0.18 79 1014.2
20260510183503 23 234 0.0 6.4 0.00 0.00 0.00 69 1014.9
20260510183417 23 246 0.0 0.0 0.00 0.18 0.18 69 1014.0
20260510183003 23 233 0.0 6.4 0.00 0.00 0.00 60 1014.8
20260510182912 23 249 0.0 0.0 0.00 0.18 0.18 62 1014.0
20260510182503 23 245 0.0 6.4 0.00 0.00 0.00 61 1015.2
20260510182409 23 249 0.0 0.0 0.00 0.18 0.18 64 1014.0
20260510182003 23 245 3.2 12.9 0.00 0.00 0.00 61 1014.7
20260510181904 23 248 0.0 3.2 0.00 0.18 0.18 59 1014.1
20260510181503 23 248 4.8 12.9 0.00 0.00 0.00 58 1015.1
20260510181402 23 228 4.8 8.0 0.00 0.18 0.18 59 1014.2
20260510181003 24 252 1.6 9.7 0.00 0.00 0.00 54 1015.1
20260510180858 24 239 1.6 4.8 0.00 0.18 0.18 56 1014.3
20260510180503 24 247 0.0 1.6 0.00 0.00 0.00 57 1015.1
20260510180356 24 254 1.6 1.6 0.00 0.18 0.18 57 1014.1
20260510180003 24 218 0.0 4.8 0.00 0.00 0.00 57 1014.9
20260510175853 24 245 0.0 0.0 0.00 0.18 0.18 56 1013.8
20260510175524 24 218 0.0 4.8 0.00 0.00 0.00 57 1015.0
20260510175348 24 244 1.6 3.2 0.00 0.18 0.18 57 1014.1
20260510175024 24 257 0.0 3.2 0.00 0.00 0.00 58 1014.7
20260510174844 25 254 0.0 0.0 0.00 0.18 0.18 59 1014.2
20260510174503 25 247 1.6 3.2 0.00 0.00 0.00 58 1014.8
20260510174342 25 242 0.0 0.0 0.00 0.18 0.18 58 1013.9
20260510174003 25 231 1.6 6.4 0.00 0.00 0.00 55 1015.1
20260510173838 25 258 0.0 1.6 0.00 0.18 0.18 58 1013.9
20260510173503 25 222 1.6 6.4 0.00 0.00 0.00 56 1014.9
20260510173334 25 193 3.2 8.0 0.00 0.18 0.18 55 1013.9
20260510173003 25 224 1.6 6.4 0.00 0.00 0.00 55 1015.0
20260510172831 25 247 1.6 3.2 0.00 0.18 0.18 56 1014.2
20260510172503 25 215 1.6 6.4 0.00 0.00 0.00 57 1014.9
20260510172327 25 249 0.0 3.2 0.00 0.18 0.18 59 1014.0
20260510172024 25 204 1.6 6.4 0.00 0.00 0.00 59 1015.1
20260510171823 25 228 1.6 4.8 0.00 0.18 0.18 57 1013.9
20260510171503 26 211 1.6 9.7 0.00 0.00 0.00 55 1015.0
20260510171321 26 208 0.0 3.2 0.00 0.18 0.18 55 1014.0
20260510171003 25 222 1.6 9.7 0.00 0.00 0.00 56 1014.9
20260510170818 25 214 1.6 4.8 0.00 0.18 0.18 58 1014.1
20260510170503 26 227 1.6 6.4 0.00 0.00 0.00 56 1015.1
20260510170314 26 213 6.4 8.0 0.00 0.18 0.18 54 1014.2
20260510170003 26 229 1.6 6.4 0.00 0.00 0.00 59 1015.0
20260510165809 25 233 1.6 3.2 0.00 0.18 0.18 58 1014.2
20260510165503 25 207 1.6 9.7 0.00 0.00 0.00 57 1015.2
20260510165307 25 215 1.6 4.8 0.00 0.18 0.18 59 1014.2
20260510165003 25 208 1.6 9.7 0.00 0.00 0.00 58 1015.2
20260510164803 25 246 0.0 3.2 0.00 0.18 0.18 58 1014.0
20260510164503 25 214 1.6 6.4 0.00 0.00 0.00 59 1014.9
20260510164300 25 216 0.0 4.8 0.00 0.18 0.18 60 1014.4
20260510164003 25 222 1.6 6.4 0.00 0.00 0.00 59 1014.9
20260510163755 25 233 1.6 4.8 0.00 0.18 0.18 59 1014.2
20260510163503 24 214 1.6 6.4 0.00 0.00 0.00 60 1015.1
20260510163251 25 241 0.0 3.2 0.00 0.18 0.18 62 1014.3
20260510163003 25 211 1.6 6.4 0.00 0.00 0.00 59 1015.1
20260510162751 25 214 1.6 4.8 0.00 0.18 0.18 60 1014.3
20260510162524 24 220 1.6 6.4 0.00 0.00 0.00 60 1015.0
20260510162248 24 245 0.0 1.6 0.00 0.18 0.18 64 1014.2
20260510162003 24 226 1.6 6.4 0.00 0.00 0.00 61 1015.1
20260510161743 24 220 1.6 3.2 0.00 0.18 0.18 61 1014.1
20260510161524 23 227 1.6 6.4 0.00 0.00 0.00 63 1015.4
20260510161239 23 253 3.2 8.0 0.00 0.18 0.18 63 1014.4
20260510161003 22 302 1.6 4.8 0.00 0.00 0.00 68 1015.3
20260510160737 22 87 1.6 4.8 0.00 0.18 0.18 67 1014.2
20260510160504 22 316 1.6 4.8 0.00 0.00 0.00 68 1014.9
20260510160232 22 284 1.6 3.2 0.00 0.18 0.18 67 1014.3
20260510160003 23 232 0.0 4.8 0.00 0.00 0.00 68 1015.0
20260510155728 22 291 0.0 1.6 0.00 0.18 0.18 66 1014.3
20260510155503 22 221 1.6 4.8 0.00 0.00 0.00 69 1015.2
20260510155224 22 250 1.6 3.2 0.00 0.18 0.18 67 1014.5
20260510155003 22 217 1.6 4.8 0.00 0.00 0.00 66 1015.2
20260510154720 23 253 0.0 1.6 0.00 0.18 0.18 66 1014.3
20260510154503 22 215 1.6 4.8 0.00 0.00 0.00 66 1015.2
20260510154024 22 217 1.6 4.8 0.00 0.00 0.00 66 1015.2
20260510153503 21 225 1.6 4.8 0.00 0.00 0.00 69 1015.4
20260510153003 21 203 1.6 6.4 0.00 0.00 0.00 71 1015.2
20260510152503 21 212 1.6 6.4 0.00 0.00 0.00 71 1015.4
20260510152003 20 207 1.6 4.8 0.00 0.00 0.00 74 1015.3
20260510151503 21 200 1.6 4.8 0.00 0.00 0.00 71 1015.4
20260510151003 21 204 0.0 4.8 0.00 0.00 0.00 71 1015.2
20260510150503 21 202 1.6 4.8 0.00 0.00 0.00 72 1015.5
20260510150003 20 201 1.6 4.8 0.00 0.00 0.00 72 1015.3
20260510145524 20 202 1.6 4.8 0.00 0.00 0.00 73 1015.2
20260510145024 20 214 1.6 6.4 0.00 0.00 0.00 75 1015.2
20260510144503 20 234 1.6 6.4 0.00 0.00 0.00 74 1015.2
20260510144003 18 277 0.0 3.2 0.00 0.00 0.00 76 1015.4
20260510143503 18 237 0.0 3.2 0.00 0.00 0.00 76 1015.4
20260510143003 18 226 0.0 3.2 0.00 0.00 0.00 76 1015.2
20260510142503 18 290 0.0 3.2 0.00 0.00 0.00 78 1015.4
20260510142003 18 224 0.0 3.2 0.00 0.00 0.00 78 1015.5
20260510141503 18 205 1.6 3.2 0.00 0.00 0.00 77 1015.6
20260510141024 18 207 0.0 3.2 0.00 0.00 0.00 78 1015.4
20260510140524 17 181 1.6 4.8 0.00 0.00 0.00 79 1015.4
20260510140003 17 188 1.6 4.8 0.00 0.00 0.00 78 1015.7
20260510135503 17 193 1.6 3.2 0.00 0.00 0.00 78 1015.3
20260510135024 17 185 1.6 4.8 0.00 0.00 0.00 78 1015.5
20260510134503 17 217 0.0 4.8 0.00 0.00 0.00 81 1015.6
20260510134024 16 196 1.6 4.8 0.00 0.00 0.00 81 1015.4
20260510133503 16 184 1.6 4.8 0.00 0.00 0.00 82 1015.4
20260510133003 16 194 1.6 3.2 0.00 0.00 0.00 82 1015.5
20260510132503 16 201 1.6 3.2 0.00 0.00 0.00 82 1015.3
20260510132003 16 219 0.0 3.2 0.00 0.00 0.00 83 1015.3
20260510131503 15 291 0.0 1.6 0.00 0.00 0.00 85 1015.2
20260510131003 15 257 0.0 3.2 0.00 0.00 0.00 85 1015.5
20260510130524 15 236 1.6 3.2 0.00 0.00 0.00 86 1015.5
20260510130003 14 212 1.6 3.2 0.00 0.00 0.00 87 1015.6
20260510125524 14 210 1.6 3.2 0.00 0.00 0.00 87 1015.6
20260510125003 13 212 1.6 3.2 0.00 0.00 0.00 87 1015.6
20260510124524 13 0 0.0 0.0 0.00 0.00 0.00 88 1015.8
20260510124003 13 0 0.0 0.0 0.00 0.00 0.00 88 1015.5
20260510123503 13 0 0.0 0.0 0.00 0.00 0.00 89 1015.5
20260510123003 13 0 0.0 0.0 0.00 0.00 0.00 89 1015.5
20260510122503 13 0 0.0 0.0 0.00 0.00 0.00 89 1015.3
20260510122003 13 0 0.0 0.0 0.00 0.00 0.00 90 1015.2
20260510121503 13 0 0.0 0.0 0.00 0.00 0.00 90 1015.2
20260510121003 12 306 0.0 1.6 0.00 0.00 0.00 90 1015.3
20260510120503 12 306 0.0 1.6 0.00 0.00 0.00 91 1015.2
20260510120003 12 268 0.0 1.6 0.00 0.00 0.00 91 1015.2
20260510115503 12 265 0.0 1.6 0.00 0.00 0.00 92 1014.8
20260510115003 12 271 0.0 1.6 0.00 0.00 0.00 92 1015.0
20260510114503 12 254 0.0 3.2 0.00 0.00 0.00 92 1014.8
20260510114003 12 236 0.0 3.2 0.00 0.00 0.00 92 1014.8
20260510113503 12 247 0.0 3.2 0.00 0.00 0.00 93 1014.9
20260510113003 12 260 0.0 1.6 0.00 0.00 0.00 93 1014.8
20260510112524 12 246 0.0 1.6 0.00 0.00 0.00 93 1014.9
20260510112003 11 320 0.0 1.6 0.00 0.00 0.00 93 1014.8
20260510111503 11 318 0.0 1.6 0.00 0.00 0.00 94 1014.5
20260510111024 11 318 0.0 1.6 0.00 0.00 0.00 94 1014.6
20260510110503 11 0 0.0 0.0 0.00 0.00 0.00 94 1014.7
20260510110003 11 213 0.0 3.2 0.00 0.00 0.00 94 1014.6
20260510105503 11 213 0.0 3.2 0.00 0.00 0.00 94 1014.5
20260510105003 11 0 0.0 0.0 0.00 0.00 0.00 94 1014.5
20260510104503 11 0 0.0 0.0 0.00 0.00 0.00 94 1014.5
20260510104003 11 0 0.0 0.0 0.00 0.00 0.00 94 1014.4
20260510103503 11 0 0.0 0.0 0.00 0.00 0.00 94 1014.4
20260510103003 10 0 0.0 0.0 0.00 0.00 0.00 94 1013.8
20260510102503 10 0 0.0 0.0 0.00 0.00 0.00 94 1013.9
20260510102003 10 0 0.0 0.0 0.00 0.00 0.00 94 1014.0
20260510101503 11 0 0.0 0.0 0.00 0.00 0.00 94 1014.0
20260510101003 10 0 0.0 0.0 0.00 0.00 0.00 94 1014.1
20260510100503 10 0 0.0 0.0 0.00 0.00 0.00 94 1013.8
20260510100024 10 0 0.0 0.0 0.00 0.00 0.00 94 1013.9
20260510095503 10 0 0.0 0.0 0.00 0.00 0.00 94 1013.9
20260510095003 10 0 0.0 0.0 0.00 0.00 0.00 94 1013.8
20260510094524 10 0 0.0 0.0 0.00 0.00 0.00 94 1013.7
20260510094024 10 0 0.0 0.0 0.00 0.00 0.00 94 1013.7
20260510093503 10 0 0.0 0.0 0.00 0.00 0.00 94 1013.6
20260510093003 10 251 0.0 4.8 0.00 0.00 0.00 94 1013.8
20260510092503 10 243 0.0 4.8 0.00 0.00 0.00 94 1013.5
20260510092003 11 251 0.0 4.8 0.00 0.00 0.00 94 1013.5
20260510091503 11 249 0.0 4.8 0.00 0.00 0.00 94 1014.1
20260510091003 11 239 0.0 3.2 0.00 0.00 0.00 94 1013.4
20260510090503 11 235 0.0 4.8 0.00 0.00 0.00 94 1013.8
20260510090024 11 244 1.6 9.7 0.00 0.00 0.00 94 1013.3
20260510085503 11 249 1.6 9.7 0.00 0.00 0.00 94 1013.9
20260510085024 11 249 1.6 9.7 0.00 0.00 0.00 94 1013.2
20260510084524 11 255 1.6 9.7 0.00 0.00 0.00 94 1013.5
20260510084003 10 0 0.0 0.0 0.00 0.00 0.00 93 1013.2
20260510083524 10 0 0.0 0.0 0.00 0.00 0.00 93 1013.2
20260510083003 10 0 0.0 0.0 0.00 0.00 0.00 93 1013.0
20260510082503 11 0 0.0 0.0 0.00 0.00 0.00 93 1013.2
20260510082003 11 0 0.0 0.0 0.00 0.00 0.00 93 1013.4
20260510081503 11 0 0.0 0.0 0.00 0.00 0.00 93 1012.8
20260510081003 11 0 0.0 0.0 0.00 0.00 0.00 93 1013.1
20260510080524 11 0 0.0 0.0 0.00 0.00 0.00 93 1013.1
20260510080003 11 0 0.0 0.0 0.00 0.00 0.00 93 1013.0
20260510075524 11 0 0.0 0.0 0.00 0.00 0.00 93 1012.9
20260510075003 11 0 0.0 0.0 0.00 0.00 0.00 93 1013.0
20260510074503 11 0 0.0 0.0 0.00 0.00 0.00 93 1012.8
20260510074003 11 0 0.0 0.0 0.00 0.00 0.00 93 1012.9
20260510073524 11 0 0.0 0.0 0.00 0.00 0.00 93 1013.0
20260510073003 11 0 0.0 0.0 0.00 0.00 0.00 93 1012.6
20260510072503 11 0 0.0 0.0 0.00 0.00 0.00 93 1012.8
20260510072003 11 0 0.0 0.0 0.00 0.00 0.00 93 1012.8
20260510071503 11 0 0.0 0.0 0.00 0.00 0.00 93 1012.5
20260510071003 11 0 0.0 0.0 0.00 0.00 0.00 92 1012.6
20260510070503 11 0 0.0 0.0 0.00 0.00 0.00 92 1012.4
20260510070004 11 0 0.0 0.0 0.00 0.00 0.00 92 1012.3
20260510065503 11 0 0.0 0.0 0.00 0.00 0.00 92 1012.2
20260510065003 11 0 0.0 0.0 0.00 0.00 0.00 92 1012.1
20260510064503 11 0 0.0 0.0 0.00 0.00 0.00 92 1012.3
20260510064003 11 0 0.0 0.0 0.00 0.00 0.00 92 1012.3
20260510063503 11 0 0.0 0.0 0.00 0.00 0.00 92 1012.6
20260510063003 11 0 0.0 0.0 0.00 0.00 0.00 92 1012.4
20260510062524 11 0 0.0 0.0 0.00 0.00 0.00 92 1012.8
20260510062003 11 0 0.0 0.0 0.00 0.00 0.00 92 1012.3
20260510061503 11 0 0.0 0.0 0.00 0.00 0.00 92 1012.7
20260510061003 11 0 0.0 0.0 0.00 0.00 0.00 92 1012.6
20260510060503 11 0 0.0 0.0 0.00 0.00 0.00 92 1012.9
20260510060003 11 0 0.0 0.0 0.00 0.00 0.00 92 1012.7
20260510055524 11 0 0.0 0.0 0.00 0.00 0.00 91 1012.7
20260510055024 11 0 0.0 0.0 0.00 0.00 0.00 91 1012.9
20260510054503 12 0 0.0 0.0 0.00 0.00 0.00 91 1013.0
20260510054003 12 0 0.0 0.0 0.00 0.00 0.00 91 1012.6
20260510053524 12 0 0.0 0.0 0.00 0.00 0.00 91 1012.8
20260510053003 12 0 0.0 0.0 0.00 0.00 0.00 91 1013.0
20260510052503 12 0 0.0 0.0 0.00 0.00 0.00 91 1012.9
20260510052003 12 0 0.0 0.0 0.00 0.00 0.00 91 1013.1
20260510051503 12 0 0.0 0.0 0.00 0.00 0.00 91 1013.0
20260510051024 12 0 0.0 0.0 0.00 0.00 0.00 91 1013.0
20260510050503 12 0 0.0 0.0 0.00 0.00 0.00 91 1013.0
20260510050024 12 0 0.0 0.0 0.00 0.00 0.00 91 1013.0
20260510045503 12 0 0.0 0.0 0.00 0.00 0.00 91 1013.2
20260510045024 12 0 0.0 0.0 0.00 0.00 0.00 91 1013.1
20260510044503 12 0 0.0 0.0 0.00 0.00 0.00 91 1013.1
20260510044003 12 0 0.0 0.0 0.00 0.00 0.00 91 1013.3
20260510043503 12 0 0.0 0.0 0.00 0.00 0.00 91 1013.1
20260510043003 12 0 0.0 0.0 0.00 0.00 0.00 91 1013.2
20260510042524 12 0 0.0 0.0 0.00 0.00 0.00 91 1013.2
20260510042003 12 0 0.0 0.0 0.00 0.00 0.00 91 1013.1
20260510041503 12 0 0.0 0.0 0.00 0.00 0.00 91 1013.2
20260510041003 12 0 0.0 0.0 0.00 0.00 0.00 90 1013.0
20260510040503 12 0 0.0 0.0 0.00 0.00 0.00 90 1013.3
20260510040004 12 0 0.0 0.0 0.00 0.00 0.00 90 1013.3
20260510035503 12 0 0.0 0.0 0.00 0.00 0.00 90 1013.3
20260510035003 12 0 0.0 0.0 0.00 0.00 0.00 90 1013.4
20260510034524 12 0 0.0 0.0 0.00 0.00 0.00 90 1012.9
20260510034003 12 0 0.0 0.0 0.00 0.00 0.00 90 1013.2
20260510033503 12 0 0.0 0.0 0.00 0.00 0.00 90 1013.0
20260510033003 12 0 0.0 0.0 0.00 0.00 0.00 90 1013.1
20260510032503 12 0 0.0 0.0 0.00 0.00 0.00 89 1012.9
20260510032003 12 0 0.0 0.0 0.00 0.00 0.00 89 1012.9
20260510031524 12 0 0.0 0.0 0.00 0.00 0.00 89 1012.9
20260510031003 12 0 0.0 0.0 0.00 0.00 0.00 89 1012.8
20260510030503 13 0 0.0 0.0 0.00 0.00 0.00 89 1012.7
20260510030003 13 0 0.0 0.0 0.00 0.00 0.00 89 1012.6
20260510025503 13 0 0.0 0.0 0.00 0.00 0.00 89 1012.8
20260510025003 13 0 0.0 0.0 0.00 0.00 0.00 89 1012.8
20260510024503 13 0 0.0 0.0 0.00 0.00 0.00 88 1012.8
20260510024003 13 0 0.0 0.0 0.00 0.00 0.00 88 1012.8
20260510023503 13 0 0.0 0.0 0.00 0.00 0.00 88 1012.8
20260510023024 13 0 0.0 0.0 0.00 0.00 0.00 88 1012.8
20260510022524 13 0 0.0 0.0 0.00 0.00 0.00 88 1013.0
20260510022003 13 271 0.0 1.6 0.00 0.00 0.00 88 1013.1
20260510021503 13 273 0.0 1.6 0.00 0.00 0.00 88 1012.8
20260510021003 13 282 0.0 1.6 0.00 0.00 0.00 88 1012.6
20260510020503 13 0 0.0 0.0 0.00 0.00 0.00 87 1012.9
20260510020003 13 0 0.0 0.0 0.00 0.00 0.00 87 1012.7
20260510015503 13 0 0.0 0.0 0.00 0.00 0.00 87 1012.5
20260510015003 13 0 0.0 0.0 0.00 0.00 0.00 87 1012.7
20260510014524 13 0 0.0 0.0 0.00 0.00 0.00 87 1012.7
20260510014003 13 283 0.0 1.6 0.00 0.00 0.00 87 1012.4
20260510013503 13 272 0.0 1.6 0.00 0.00 0.00 86 1012.6
20260510013003 13 263 0.0 1.6 0.00 0.00 0.00 86 1012.5
20260510012503 13 278 0.0 3.2 0.00 0.00 0.00 86 1012.5
20260510012024 14 281 0.0 3.2 0.00 0.00 0.00 85 1012.5
20260510011503 14 281 0.0 1.6 0.00 0.00 0.00 85 1012.6
20260510011003 14 280 0.0 1.6 0.00 0.00 0.00 85 1012.2
20260510010503 14 271 0.0 1.6 0.00 0.00 0.00 85 1012.2
20260510010003 14 273 0.0 1.6 0.00 0.00 0.00 85 1012.1
20260510005503 14 275 0.0 1.6 0.00 0.00 0.00 85 1012.1
20260510005003 14 290 0.0 1.6 0.00 0.00 0.00 84 1012.2
20260510004503 14 284 0.0 1.6 0.00 0.00 0.00 83 1012.0
20260510004003 14 285 0.0 1.6 0.00 0.00 0.00 83 1012.2
20260510003503 14 285 0.0 1.6 0.00 0.00 0.00 83 1012.0
20260510003003 15 289 0.0 1.6 0.00 0.00 0.00 83 1012.1
20260510002503 15 293 0.0 1.6 0.00 0.00 0.00 83 1012.4
20260510002024 15 278 0.0 1.6 0.00 0.00 0.00 83 1012.2
20260510001503 15 279 0.0 1.6 0.00 0.00 0.00 82 1012.1
20260510001003 15 283 0.0 3.2 0.00 0.00 0.00 82 1012.1
20260510000503 15 287 0.0 3.2 0.00 0.00 0.00 82 1012.3
20260510000003 15 273 0.0 1.6 0.00 0.00 0.00 82 1012.2
20260509235503 15 295 0.0 1.6 0.00 0.00 0.00 82 1012.1
20260509235003 15 289 0.0 1.6 0.00 0.00 0.00 82 1012.2
20260509234503 15 290 0.0 1.6 0.00 0.00 0.00 82 1012.3
20260509234003 15 324 0.0 3.2 0.00 0.00 0.00 81 1012.0
20260509233503 15 322 0.0 3.2 0.00 0.00 0.00 81 1012.2
20260509233024 15 315 0.0 3.2 0.00 0.00 0.00 80 1012.2
20260509232503 15 307 0.0 3.2 0.00 0.00 0.00 80 1012.2
20260509232003 15 303 0.0 3.2 0.00 0.00 0.00 80 1011.8
20260509231503 15 316 0.0 3.2 0.00 0.00 0.00 80 1012.0
20260509231024 15 343 0.0 3.2 0.00 0.00 0.00 79 1011.9
20260509230503 15 314 0.0 3.2 0.00 0.00 0.00 79 1011.7
20260509230003 15 259 0.0 3.2 0.00 0.00 0.00 79 1012.1
20260509225503 15 264 0.0 3.2 0.00 0.00 0.00 79 1011.8
20260509225003 15 282 0.0 1.6 0.00 0.00 0.00 79 1011.9
20260509224503 15 278 0.0 1.6 0.00 0.00 0.00 79 1012.0
20260509224003 15 317 0.0 4.8 0.00 0.00 0.00 79 1012.1
20260509223503 15 354 0.0 4.8 0.00 0.00 0.00 79 1012.0
20260509223003 15 354 0.0 3.2 0.00 0.00 0.00 79 1012.3
20260509222503 15 336 1.6 3.2 0.00 0.00 0.00 79 1012.2
20260509222003 15 343 1.6 3.2 0.00 0.00 0.00 80 1012.0
20260509221503 15 16 1.6 3.2 0.00 0.00 0.00 80 1011.8
20260509221024 15 31 0.0 3.2 0.00 0.00 0.00 80 1012.0
20260509220503 15 343 0.0 3.2 0.00 0.00 0.00 80 1012.1
20260509220024 15 10 1.6 3.2 0.00 0.00 0.00 81 1012.0
20260509215503 15 30 1.6 3.2 0.00 0.00 0.00 80 1012.2
20260509215003 15 29 0.0 3.2 0.00 0.00 0.00 80 1012.1
20260509214503 15 12 0.0 3.2 0.00 0.00 0.00 80 1012.1
20260509214003 15 4 0.0 3.2 0.00 0.00 0.00 80 1012.0
20260509213503 15 27 0.0 3.2 0.00 0.00 0.00 79 1012.1
20260509213003 15 36 0.0 3.2 0.00 0.00 0.00 79 1012.0
20260509212524 15 19 1.6 3.2 0.00 0.00 0.00 79 1012.1
20260509212024 15 13 1.6 3.2 0.00 0.00 0.00 79 1012.1
20260509211503 15 22 0.0 3.2 0.00 0.00 0.00 79 1011.7
20260509211003 15 334 0.0 3.2 0.00 0.00 0.00 79 1012.2
20260509210503 15 319 0.0 3.2 0.00 0.00 0.00 79 1011.8
20260509210024 15 352 0.0 3.2 0.00 0.00 0.00 79 1012.0
20260509205503 15 354 0.0 3.2 0.00 0.00 0.00 78 1012.0
20260509205003 16 311 0.0 1.6 0.00 0.00 0.00 78 1012.1
20260509204503 16 299 0.0 3.2 0.00 0.00 0.00 77 1012.2
20260509204003 16 268 0.0 4.8 0.00 0.00 0.00 77 1012.1
20260509203524 16 258 0.0 4.8 0.00 0.00 0.00 77 1012.0
20260509203024 16 264 0.0 3.2 0.00 0.00 0.00 77 1012.0
20260509202503 16 275 0.0 3.2 0.00 0.00 0.00 77 1012.0
20260509202003 16 279 1.6 3.2 0.00 0.00 0.00 77 1012.0
20260509201503 16 313 1.6 4.8 0.00 0.00 0.00 76 1012.2
20260509201003 16 340 1.6 4.8 0.00 0.00 0.00 77 1012.2
20260509200503 16 331 0.0 3.2 0.00 0.00 0.00 76 1012.1
20260509200003 16 324 1.6 3.2 0.00 0.00 0.00 76 1012.0
20260509195503 16 295 1.6 3.2 0.00 0.00 0.00 77 1012.0
20260509195003 16 300 0.0 3.2 0.00 0.00 0.00 76 1012.1
20260509194503 16 274 1.6 11.3 0.00 0.00 0.00 76 1012.1
20260509194003 16 261 1.6 11.3 0.00 0.00 0.00 76 1012.0
20260509193503 16 260 1.6 6.4 0.00 0.00 0.00 74 1012.1
20260509193003 17 253 1.6 6.4 0.00 0.00 0.00 73 1012.4